Location: Aytr�
(46.1357°N, 1.1145°W)
Time: 16:30:55
(UTC+00:00)

USA 306 - Pass Details

Date: 03 March 2021
Orbit: 564 x 577 km, 54.0° (Epoch: 13 April)

Event Time Altitude Azimuth Distance (km) Brightness Sun altitude
Rises 19:58:49 0° 294° (WNW) 2,773 7.8 -22.3°
Reaches altitude 10° 20:01:18 10° 306° (NW) 1,872 6.5 -22.7°
Maximum altitude 20:05:03 29° 8° (N) 1,053 4.3 -23.3°
Enters shadow 20:05:20 29° 15° (NNE) 1,059 4.2 -23.4°
